| time (UTC) | temp C | wind direction | speed KPH | gust KPH | rain 1hr cm | rain 24hr cm | rain mn cm | humidity % | barometer mb |
| 20260504174517 | 21 | 246 | 4.8 | 20.9 | 0.00 | 0.00 | 0.00 | 33 | 1012.2 |
| 20260504173016 | 20 | 263 | 6.4 | 17.7 | 0.00 | 0.00 | 0.00 | 33 | 1012.4 |
| 20260504171534 | 20 | 269 | 6.4 | 22.5 | 0.00 | 0.00 | 0.00 | 33 | 1012.6 |
| 20260504081517 | 5 | 298 | 0.0 | 3.2 | 0.00 | 0.00 | 0.00 | 69 | 1014.5 |
| 20260504044516 | 1 | 315 | 0.0 | 0.0 | 0.00 | 0.00 | 0.00 | 85 | 1014.7 |
| 20260504043033 | 1 | 315 | 0.0 | 0.0 | 0.00 | 0.00 | 0.00 | 84 | 1014.7 |
| 20260504041534 | 2 | 315 | 0.0 | 0.0 | 0.00 | 0.00 | 0.00 | 83 | 1014.6 |
| 20260504040033 | 2 | 315 | 0.0 | 0.0 | 0.00 | 0.00 | 0.00 | 83 | 1014.5 |
| 20260504033041 | 2 | 315 | 0.0 | 0.0 | 0.00 | 0.00 | 0.00 | 81 | 1014.4 |
| 20260504031525 | 2 | 315 | 0.0 | 0.0 | 0.00 | 0.00 | 0.00 | 80 | 1014.4 |
| 20260504030044 | 3 | 315 | 0.0 | 0.0 | 0.00 | 0.00 | 0.00 | 77 | 1014.4 |
| 20260504024526 | 3 | 315 | 0.0 | 0.0 | 0.00 | 0.03 | 0.00 | 76 | 1014.4 |
| 20260504023025 | 3 | 315 | 0.0 | 0.0 | 0.00 | 0.03 | 0.00 | 74 | 1014.3 |
| 20260504021525 | 4 | 315 | 0.0 | 0.0 | 0.00 | 0.03 | 0.00 | 72 | 1014.3 |
| 20260504020026 | 5 | 315 | 0.0 | 0.0 | 0.00 | 0.03 | 0.00 | 70 | 1014.2 |
| 20260504014525 | 5 | 315 | 0.0 | 0.0 | 0.00 | 0.03 | 0.00 | 67 | 1014.2 |
| 20260504013026 | 5 | 315 | 0.0 | 0.0 | 0.00 | 0.03 | 0.00 | 66 | 1014.1 |
| 20260504011541 | 5 | 315 | 0.0 | 0.0 | 0.00 | 0.03 | 0.00 | 66 | 1013.9 |
| 20260504003043 | 7 | 315 | 0.0 | 0.0 | 0.00 | 0.03 | 0.00 | 52 | 1013.2 |
| 20260504001527 | 8 | 315 | 0.0 | 0.0 | 0.00 | 0.03 | 0.00 | 47 | 1013.0 |
| 20260504000026 | 10 | 315 | 0.0 | 0.0 | 0.00 | 0.03 | 0.00 | 42 | 1012.8 |
| 20260503233027 | 12 | 331 | 0.0 | 4.8 | 0.00 | 0.03 | 0.00 | 36 | 1012.7 |
| 20260503231526 | 12 | 332 | 1.6 | 12.9 | 0.00 | 0.03 | 0.00 | 34 | 1012.6 |
| 20260503224525 | 12 | 328 | 3.2 | 14.5 | 0.00 | 0.03 | 0.00 | 34 | 1012.5 |
| 20260503223028 | 12 | 327 | 4.8 | 14.5 | 0.00 | 0.03 | 0.00 | 34 | 1012.5 |
| 20260503221525 | 13 | 330 | 3.2 | 11.3 | 0.00 | 0.03 | 0.00 | 36 | 1012.5 |
| 20260503220026 | 13 | 332 | 3.2 | 14.5 | 0.00 | 0.03 | 0.00 | 36 | 1012.6 |
| 20260503214540 | 13 | 325 | 3.2 | 14.5 | 0.00 | 0.03 | 0.00 | 35 | 1012.5 |
| 20260503213025 | 13 | 330 | 4.8 | 16.1 | 0.00 | 0.03 | 0.00 | 36 | 1012.5 |
| 20260503210025 | 13 | 343 | 4.8 | 14.5 | 0.00 | 0.03 | 0.00 | 36 | 1012.4 |
| 20260503203025 | 13 | 332 | 4.8 | 19.3 | 0.00 | 0.03 | 0.00 | 36 | 1012.4 |
| 20260503201543 | 12 | 339 | 4.8 | 17.7 | 0.00 | 0.03 | 0.00 | 37 | 1012.3 |
| 20260503200025 | 13 | 337 | 3.2 | 17.7 | 0.00 | 0.03 | 0.00 | 36 | 1012.3 |
| 20260503194526 | 12 | 321 | 6.4 | 25.7 | 0.00 | 0.03 | 0.00 | 36 | 1012.2 |
| 20260503193041 | 12 | 330 | 6.4 | 17.7 | 0.00 | 0.03 | 0.00 | 37 | 1012.3 |
| 20260503191526 | 13 | 326 | 6.4 | 22.5 | 0.00 | 0.03 | 0.00 | 36 | 1012.2 |
| 20260503190028 | 13 | 335 | 4.8 | 19.3 | 0.00 | 0.03 | 0.00 | 38 | 1012.2 |
| 20260503184524 | 12 | 313 | 6.4 | 27.4 | 0.00 | 0.03 | 0.00 | 37 | 1012.3 |
| 20260503181525 | 13 | 325 | 4.8 | 19.3 | 0.00 | 0.05 | 0.00 | 38 | 1012.1 |
| 20260503180024 | 12 | 353 | 4.8 | 22.5 | 0.00 | 0.05 | 0.00 | 41 | 1012.4 |